Wind_Speed
124 119 115 112 107 107 102 96 88 90 83 81 74 75 78 61 63 62 86 82 86 66 62 74 72 68 64 62 59 61 63 58 63 54 56 54 51 40 24 24 32 34 17 16 23
129 125 121 117 115 110 106 103 96 91 88 85 80 79 77 78 63 68 63 83 83 81 68 69 72 73 69 65 63 60 61 62 58 56 55 53 48 46 45 32 35 20 17 26 29
131 128 128 123 119 115 110 108 104 97 94 92 88 82 77 75 72 70 69 71 92 81 70 73 77 76 75 71 63 61 60 62 57 54 54 52 51 47 40 39 39 38 34 26 29
128 132 130 131 121 120 117 110 108 104 100 96 95 90 82 81 80 72 65 71 95 85 73 78 74 71 70 66 59 61 65 60 66 59 57 55 45 46 43 42 41 39 34 32 23
123 127 131 126 126 123 118 116 112 107 106 99 95 92 87 85 79 77 70 63 80 99 72 83 78 72 72 75 70 68 69 61 61 61 63 57 54 53 46 36 39 37 35 27 23
108 116 122 131 128 125 121 121 118 115 109 104 101 99 90 85 84 81 77 69 70 90 91 82 82 81 78 75 73 74 72 72 66 62 59 60 59 58 49 44 44 38 39 36 31
100 102 107 118 128 129 126 121 120 115 113 110 104 103 97 95 87 91 83 80 75 88 103 82 87 91 81 77 69 74 71 70 69 65 60 61 60 58 57 52 50 45 45 43 42
100 97 98 103 114 128 129 124 123 120 120 117 113 108 103 97 95 91 90 85 78 81 88 99 89 93 93 85 84 81 79 73 71 69 65 59 61 62 59 56 55 53 48 46 45
99 94 92 92 97 110 124 130 131 126 124 122 117 110 108 100 96 98 93 95 88 82 94 113 93 92 97 91 89 86 80 74 73 68 62 62 69 66 62 60 56 59 53 47 45
103 98 93 89 89 97 102 113 120 125 131 126 119 114 109 106 107 102 102 98 93 86 89 114 105 97 93 85 86 86 84 78 77 74 68 61 67 67 63 60 58 55 53 47 45
88 97 93 88 83 85 91 102 111 118 123 118 116 117 111 115 111 104 102 100 97 89 84 107 107 94 91 93 93 89 85 83 77 72 69 67 67 63 61 57 52 53 50 50 47
88 92 95 91 85 85 86 82 85 92 100 106 106 116 116 113 110 107 105 105 97 92 95 107 112 95 96 93 98 94 89 85 81 78 75 69 68 67 63 59 55 50 46 49 51
92 89 96 90 87 82 75 74 83 89 98 97 98 99 102 104 105 102 105 103 98 94 92 94 104 120 102 98 105 98 97 91 85 85 84 82 74 66 62 58 67 50 49 53 55
92 90 95 93 84 73 73 79 83 90 100 102 102 100 98 99 105 99 98 103 100 95 93 96 107 126 102 102 104 101 99 92 90 91 84 84 77 74 68 68 67 55 57 61 60
101 95 82 86 84 66 72 76 80 92 99 100 102 103 100 100 96 95 97 102 100 97 92 95 104 117 94 99 108 107 104 101 100 97 95 90 87 80 79 70 64 63 60 65 68
104 95 94 96 85 79 79 74 80 94 99 99 98 100 98 100 98 103 100 104 104 101 96 100 117 121 99 101 108 110 107 104 103 102 99 92 88 81 69 64 66 69 71 70 71
105 95 83 93 94 89 86 80 81 85 87 94 96 99 99 99 99 102 103 103 106 102 98 99 102 112 115 107 108 104 105 106 107 102 92 93 85 67 63 71 71 69 72 72 73
100 94 70 90 100 93 91 84 80 81 84 87 95 101 100 103 107 106 103 106 108 105 103 100 100 108 115 114 101 107 111 108 107 101 95 92 81 72 79 77 76 74 74 75 76
110 109 103 91 95 94 93 84 70 70 76 77 86 100 105 107 109 109 107 105 108 106 103 99 98 104 112 117 110 108 110 107 112 108 104 98 92 91 90 85 78 79 77 76 79
120 114 109 98 90 90 90 77 72 76 80 81 81 81 97 106 108 109 106 102 107 106 105 96 100 104 111 117 121 105 110 112 109 112 109 105 100 90 83 82 84 83 82 83 84
125 116 99 103 95 95 97 88 87 83 80 79 82 75 82 97 105 108 100 99 105 106 104 99 99 103 113 118 116 104 105 110 108 105 107 107 99 96 91 87 90 85 88 89 88
122 115 111 101 98 102 91 85 84 79 82 77 81 81 85 89 97 101 98 97 102 106 100 100 98 102 109 116 118 114 109 110 112 108 97 102 97 94 92 91 95 94 96 94 91
124 116 108 104 110 106 99 94 90 83 80 78 75 75 74 74 83 90 95 98 106 107 104 101 102 104 111 115 119 119 114 110 112 115 111 105 94 98 97 95 100 101 100 102 96
130 124 116 117 113 105 96 94 97 89 84 78 76 71 70 71 72 76 87 98 106 107 105 104 105 107 105 103 110 112 109 113 117 119 113 109 102 105 105 103 104 105 106 105 102
137 134 128 119 118 109 106 102 101 97 93 88 80 70 66 64 67 68 82 94 104 103 104 106 104 105 103 105 110 114 115 116 118 117 118 88 103 105 108 112 111 111 108 108 107
140 136 134 136 125 119 117 109 110 105 94 94 90 78 69 65 60 64 73 84 93 101 103 104 103 103 105 106 109 111 117 118 115 111 110 96 89 95 105 109 111 112 112 113 112
131 136 137 131 131 124 124 110 107 108 107 97 94 85 70 66 66 71 76 83 87 95 100 99 101 102 103 107 110 113 106 111 112 109 107 103 78 89 99 106 109 112 114 114 112
Wind_Direction
228 229 230 229 231 233 233 233 231 231 229 230 229 222 220 222 228 221 217 218 215 214 225 229 234 236 237 234 237 236 235 233 238 239 243 245 244 239 249 242 257 253 260 273 302
229 229 229 227 229 232 232 233 233 233 232 233 230 225 221 223 228 220 221 217 217 218 221 225 233 238 236 235 232 235 237 234 235 239 242 242 248 244 246 258 249 236 249 283 296
228 229 229 228 228 229 231 231 232 234 235 232 234 229 229 223 223 226 225 219 216 215 222 230 238 236 238 239 239 236 232 230 233 234 236 242 248 247 236 238 254 261 273 279 287
224 225 228 228 227 228 231 230 232 232 235 235 231 231 230 229 226 224 225 218 216 214 217 219 225 230 231 233 229 233 234 232 233 233 236 239 242 243 243 234 252 257 262 272 265
221 222 223 226 227 227 229 230 232 232 234 234 235 232 230 232 230 227 224 220 219 215 216 221 220 225 225 235 232 230 233 232 233 234 236 235 243 245 240 238 244 254 262 259 260
223 222 223 222 225 227 227 229 229 232 233 233 235 236 233 233 229 231 231 225 222 215 217 218 220 226 228 234 238 235 234 235 233 236 233 236 237 243 239 245 249 258 260 261 270
223 221 221 223 224 224 226 229 230 231 234 235 235 235 231 234 224 228 230 235 230 219 212 220 219 224 223 227 227 233 237 233 237 241 239 240 238 239 245 247 254 254 261 262 270
228 222 221 220 221 223 225 226 229 231 232 235 237 235 236 233 230 233 232 237 231 222 219 219 220 219 220 226 229 236 238 242 247 243 239 239 239 238 241 244 252 256 252 262 268
225 227 226 224 221 221 222 225 228 229 231 232 234 236 237 229 235 235 236 238 234 228 221 216 217 219 226 228 230 236 236 237 240 243 243 241 244 242 245 249 251 256 256 262 266
224 228 225 224 221 220 219 221 223 227 229 231 232 234 237 238 239 236 236 235 238 229 222 216 222 218 218 223 223 229 233 239 237 240 243 232 235 243 247 244 249 255 256 256 263
223 227 227 225 222 220 220 218 219 221 225 228 233 233 234 238 239 237 235 234 238 229 228 218 216 216 218 219 222 226 231 235 239 235 234 227 237 236 237 241 245 250 254 254 248
211 224 224 224 221 217 217 219 221 221 223 223 227 229 231 232 236 237 233 237 237 234 226 219 216 212 219 220 222 224 228 231 237 239 237 233 229 243 239 242 248 253 248 255 244
209 218 225 223 218 216 218 216 217 217 216 213 218 223 225 227 229 230 231 232 233 233 225 225 217 215 221 213 220 225 228 227 231 235 238 238 238 234 233 242 258 249 251 247 240
208 213 222 224 221 217 210 207 208 211 213 210 215 217 217 221 224 223 224 225 225 226 225 222 217 214 215 215 222 224 224 227 229 232 234 236 238 236 237 245 255 242 252 247 246
205 207 205 222 224 217 209 211 210 210 210 209 210 214 213 216 217 219 217 221 223 224 222 220 218 215 214 217 219 221 223 228 231 234 235 236 237 241 245 249 252 248 246 247 249
202 209 219 226 227 219 213 213 210 213 206 209 214 213 213 213 219 217 214 216 219 220 220 220 217 216 209 216 218 222 225 226 229 233 234 234 238 242 246 241 250 245 249 247 248
206 208 216 222 223 225 223 220 216 213 209 209 216 217 216 217 216 216 213 215 217 219 218 220 221 216 217 213 214 221 225 227 229 231 231 236 239 242 235 249 252 249 249 246 254
199 204 197 217 222 222 223 223 220 210 212 213 218 217 216 218 216 216 215 215 217 216 217 219 220 218 218 219 217 222 225 227 228 230 230 229 233 233 237 248 250 251 250 250 249
199 205 212 222 222 225 228 226 220 221 219 221 223 222 221 220 219 216 217 216 216 215 217 219 220 220 220 220 219 219 224 228 228 228 228 226 234 234 237 244 246 246 248 245 244
205 207 209 214 219 222 229 229 223 222 221 222 224 226 225 224 223 220 220 217 216 216 217 216 220 220 224 223 223 219 219 225 230 232 230 233 234 235 236 244 244 242 244 241 247
207 207 210 216 219 223 229 233 228 229 228 223 223 227 229 227 223 222 222 219 218 217 216 215 220 221 222 224 223 217 219 224 228 233 233 232 231 231 233 241 238 237 237 244 250
205 206 208 216 221 223 222 228 225 227 230 230 225 227 229 229 227 223 223 219 216 217 216 216 219 221 224 225 225 220 219 223 228 230 230 230 230 234 234 238 235 237 242 247 249
207 205 207 209 218 220 223 227 226 231 230 234 229 227 228 230 229 226 223 219 219 217 218 216 217 221 223 224 226 228 228 224 226 230 233 234 231 232 234 233 234 241 245 250 249
205 204 208 211 219 223 228 231 230 234 237 236 237 234 228 230 227 223 220 218 217 219 217 216 218 220 221 224 226 227 229 225 225 228 232 234 231 235 235 235 237 242 247 249 250
207 207 210 212 217 220 222 227 233 234 234 240 240 239 235 233 225 220 219 220 217 219 220 220 220 221 223 223 226 227 228 227 225 226 229 230 230 230 233 234 237 241 243 245 248
208 210 215 212 217 219 222 226 229 233 238 243 245 241 245 232 224 221 221 219 221 221 222 224 222 223 223 224 226 228 229 230 231 229 228 232 234 232 236 238 240 241 243 243 246
209 213 215 218 218 221 224 226 230 234 237 240 241 242 238 226 217 216 213 213 217 222 224 227 225 226 226 225 226 228 231 232 232 230 229 230 232 231 231 234 236 238 240 242 245
Height
10515 10535 10555 10572 10587 10600 10614 10629 10648 10653 10668 10682 10693 10701 10713 10719 10728 10737 10745 10756 10770 10777 10780 10782 10790 10798 10807 10820 10829 10836 10845 10850 10851 10859 10863 10866 10870 10877 10879 10881 10882 10885 10884 10883 10884
10488 10512 10530 10549 10567 10580 10596 10611 10627 10640 10651 10662 10676 10686 10699 10706 10713 10725 10733 10746 10759 10772 10771 10773 10780 10789 10798 10808 10818 10829 10836 10840 10845 10853 10857 10861 10865 10871 10875 10878 10880 10880 10881 10882 10882
10457 10483 10501 10527 10544 10561 10575 10593 10608 10622 10633 10649 10659 10672 10683 10694 10700 10714 10726 10734 10749 10759 10764 10768 10769 10780 10789 10796 10806 10821 10827 10833 10837 10844 10851 10856 10861 10864 10870 10872 10875 10876 10879 10880 10881
10432 10457 10477 10500 10523 10540 10556 10573 10588 10604 10615 10627 10642 10654 10668 10677 10687 10700 10712 10723 10735 10748 10755 10758 10764 10769 10777 10787 10800 10808 10816 10825 10829 10838 10844 10849 10856 10859 10864 10869 10870 10872 10875 10878 10878
10407 10432 10455 10478 10502 10521 10539 10553 10568 10585 10598 10611 10622 10638 10651 10662 10674 10688 10698 10709 10717 10734 10742 10750 10754 10761 10768 10778 10788 10794 10801 10813 10818 10829 10836 10844 10849 10854 10860 10863 10865 10867 10870 10874 10874
10388 10411 10433 10455 10475 10497 10519 10532 10550 10563 10581 10597 10609 10621 10636 10650 10661 10671 10682 10696 10703 10718 10728 10741 10747 10749 10757 10767 10773 10779 10793 10803 10813 10821 10829 10834 10842 10848 10852 10857 10859 10862 10866 10870 10871
10370 10391 10413 10433 10453 10472 10496 10513 10528 10546 10561 10574 10592 10600 10618 10624 10644 10657 10671 10680 10691 10702 10712 10728 10732 10741 10751 10755 10758 10767 10780 10791 10803 10813 10822 10827 10836 10840 10846 10852 10853 10857 10860 10863 10866
10350 10374 10396 10412 10432 10452 10477 10493 10509 10526 10542 10557 10568 10582 10600 10606 10629 10643 10656 10662 10673 10687 10700 10710 10720 10730 10736 10744 10749 10759 10766 10782 10791 10801 10813 10823 10825 10831 10837 10842 10846 10851 10854 10856 10859
10333 10354 10375 10397 10415 10433 10453 10470 10488 10506 10519 10536 10550 10568 10576 10595 10614 10626 10637 10642 10656 10669 10681 10694 10710 10716 10725 10736 10741 10748 10758 10772 10779 10787 10798 10813 10814 10823 10830 10834 10839 10842 10846 10850 10853
10323 10338 10360 10379 10396 10413 10430 10446 10462 10479 10495 10513 10533 10548 10567 10579 10588 10604 10617 10627 10640 10652 10667 10683 10695 10704 10717 10729 10738 10740 10744 10756 10768 10776 10787 10800 10801 10811 10819 10825 10829 10835 10839 10843 10846
10316 10326 10343 10362 10381 10395 10408 10424 10438 10455 10478 10512 10528 10539 10551 10559 10573 10590 10599 10608 10620 10638 10655 10664 10683 10706 10706 10713 10716 10725 10735 10743 10753 10761 10774 10786 10788 10797 10806 10815 10823 10827 10831 10835 10838
10309 10313 10324 10345 10364 10382 10401 10423 10441 10467 10477 10492 10500 10511 10521 10536 10551 10565 10583 10596 10612 10626 10633 10647 10680 10680 10686 10701 10702 10712 10724 10736 10743 10751 10762 10771 10778 10787 10798 10806 10812 10819 10824 10827 10831
10297 10304 10313 10331 10349 10371 10392 10405 10418 10430 10442 10457 10472 10489 10504 10521 10532 10544 10562 10575 10589 10601 10622 10636 10650 10659 10670 10685 10687 10703 10714 10724 10734 10738 10745 10756 10765 10780 10788 10796 10802 10813 10816 10819 10820
10287 10295 10300 10316 10336 10360 10377 10385 10396 10403 10416 10434 10449 10462 10478 10496 10507 10524 10543 10552 10571 10585 10599 10613 10625 10651 10660 10675 10680 10692 10699 10705 10714 10721 10734 10738 10759 10771 10779 10787 10797 10801 10807 10808 10810
10276 10285 10285 10305 10328 10355 10363 10371 10380 10387 10399 10420 10432 10446 10460 10477 10495 10512 10526 10541 10559 10569 10586 10606 10612 10639 10653 10666 10661 10674 10678 10688 10695 10702 10713 10729 10743 10761 10768 10781 10788 10789 10794 10796 10797
10265 10277 10285 10294 10313 10333 10341 10353 10364 10368 10385 10411 10426 10441 10452 10467 10482 10487 10505 10520 10531 10547 10568 10579 10593 10613 10647 10641 10648 10651 10661 10673 10680 10687 10696 10720 10735 10744 10764 10772 10774 10777 10780 10783 10787
10260 10272 10279 10290 10305 10314 10325 10335 10344 10364 10386 10406 10421 10432 10444 10452 10467 10477 10495 10509 10520 10537 10555 10568 10584 10611 10626 10616 10629 10637 10646 10656 10664 10674 10710 10709 10722 10748 10749 10755 10759 10764 10768 10771 10775
10250 10261 10272 10277 10286 10298 10310 10325 10344 10369 10381 10398 10407 10409 10422 10432 10441 10456 10468 10486 10504 10524 10537 10551 10569 10592 10601 10603 10622 10627 10627 10642 10655 10670 10691 10694 10713 10739 10733 10740 10745 10750 10756 10758 10761
10235 10245 10255 10272 10277 10287 10296 10317 10351 10361 10372 10385 10386 10391 10403 10412 10426 10438 10458 10481 10491 10509 10524 10542 10554 10568 10576 10587 10594 10606 10619 10628 10634 10650 10663 10679 10699 10716 10718 10725 10732 10735 10740 10743 10744
10221 10233 10252 10262 10270 10277 10288 10317 10332 10344 10351 10361 10369 10381 10395 10405 10415 10429 10447 10471 10484 10496 10507 10524 10530 10546 10557 10564 10573 10587 10602 10605 10616 10633 10653 10672 10688 10707 10710 10708 10714 10720 10719 10725 10727
10207 10225 10249 10254 10261 10260 10283 10307 10317 10326 10335 10347 10358 10368 10381 10389 10403 10417 10439 10457 10469 10478 10491 10506 10515 10528 10534 10551 10567 10579 10588 10600 10605 10616 10634 10650 10668 10678 10689 10690 10695 10700 10702 10704 10710
10198 10222 10238 10245 10245 10248 10275 10289 10301 10311 10323 10333 10346 10354 10365 10374 10387 10403 10422 10442 10449 10458 10475 10485 10497 10509 10525 10535 10545 10564 10571 10578 10582 10605 10609 10623 10652 10665 10672 10675 10679 10679 10683 10686 10693
10189 10214 10225 10234 10223 10245 10261 10271 10283 10294 10310 10320 10334 10344 10354 10362 10369 10385 10405 10419 10428 10438 10454 10471 10478 10490 10498 10512 10531 10555 10566 10572 10580 10580 10594 10603 10649 10646 10649 10659 10660 10661 10661 10665 10674
10182 10194 10207 10212 10224 10241 10256 10264 10274 10287 10296 10310 10321 10333 10341 10351 10364 10374 10387 10398 10409 10420 10435 10444 10455 10469 10489 10513 10512 10526 10538 10545 10549 10556 10577 10595 10623 10624 10632 10636 10640 10637 10640 10649 10658
10160 10175 10187 10199 10215 10230 10243 10255 10260 10275 10289 10299 10311 10325 10334 10342 10353 10366 10378 10384 10392 10407 10417 10425 10443 10461 10476 10485 10488 10501 10506 10513 10520 10545 10547 10588 10588 10598 10602 10609 10613 10618 10625 10632 10637
10144 10160 10171 10189 10201 10214 10226 10239 10253 10265 10278 10291 10302 10312 10325 10337 10351 10361 10369 10376 10393 10400 10405 10416 10436 10445 10454 10463 10470 10480 10488 10495 10522 10537 10560 10559 10580 10588 10586 10590 10599 10606 10608 10612 10618
10129 10146 10161 10177 10195 10203 10217 10235 10248 10256 10266 10279 10288 10300 10316 10328 10337 10344 10351 10357 10368 10380 10391 10400 10420 10429 10443 10446 10448 10451 10489 10492 10502 10515 10535 10547 10557 10547 10558 10568 10573 10575 10580 10587 10593